Regional Weather Roundup
Issued by NWS

Home | Current Version | Previous Version | Text Only | Print | Product List | Glossary On
Versions: 1 2 3 4 5 6 7 8 9 10 11 12 13 14 15 16 17 18 19 20 21 22 23 24 25 26 27 28 29 30 31 32 33 34 35 36 37 38 39 40 41 42 43 44 45 46 47 48 49 50
000
ASUS42 KTBW 311516
RWRFL
FLORIDA REGIONAL WEATHER ROUNDUP
NATIONAL WEATHER SERVICE TAMPA BAY RUSKIN FL
1100 AM EDT WED AUG 31 2016

NOTE: "FAIR" INDICATES FEW OR NO CLOUDS BELOW 12,000 FEET WITH NO
SIGNIFICANT WEATHER AND/OR OBSTRUCTIONS TO VISIBILITY.

FLZ001>010-012>015-112-114-115-311600-
PANHANDLE FLORIDA

CITY           SKY/WX    TMP DP  RH WIND       PRES   REMARKS
PENSACOLA      SUNNY     84  72  67 NE7G16    29.90S
PENSACOLA NAS  MOSUNNY   85  73  67 E13       29.89S
MILTON NAS     MOSUNNY   84  73  69 NE14      29.91S
CRESTVIEW      MOSUNNY   86  71  60 VRB7      29.93S
DUKE FIELD     MOSUNNY   84  71  63 NE9       29.91S
VALPARAISO     MOSUNNY   85  71  62 NE12      29.89S
MARY ESTHER    MOSUNNY   86  71  61 E8        29.88S
PANAMA CITY    FAIR      83  73  72 NE9       29.88
TYNDALL AFB    PTSUNNY   79  73  79 NE10      29.89S
APALACHICOLA   PTSUNNY   82  77  84 E8        29.88R

STATION/POSITION SKY/WX   TEMP    WIND        PRES    WAVE   SWELL
                          AIR SEA DIR/SP/G            HT/PER HT/PER
                          (F)     (DEG/KT/KT) (MB)    (FT/S) (FT/S)
30.1N   87.6W              80 85   60/ 16/ 19 1011.8R   4/ 8   2/ 8
29.2N   88.2W              84 85   60/ 16/ 21 1010.5R
28.8N   86.0W              83 85  330/  8/ 10 1010.4    4/ 8   3/ 8
PANAMA CITY BEAC           79 85   60/  6/ 16 1012.4R
TOWER C                    79     140/ 16/ 18 1012.1R
28.5N   84.5W              80 85  180/ 12/ 14 1011.5R   5/ 8   3/ 8

$$
FLZ011-016>038-118-127-128-134-139-239-311600-
NORTH FLORIDA

CITY           SKY/WX    TMP DP  RH WIND       PRES   REMARKS
MARIANNA       CLOUDY    82  74  76 NE12      29.91S
TALLAHASSEE    CLOUDY    80  74  81 E12       29.91S
PERRY          CLOUDY    81  75  82 E5        29.91S
CROSS CITY     LGT RAIN  77  75  94 SE3       29.91S
LAKE CITY      CLOUDY    79  77  94 S3        29.93R
GAINESVILLE    CLOUDY    81  75  82 S7        29.92S
WILLISTON      FAIR      81  77  89 S7        29.93R
PALATKA        CLOUDY    82  64  54 SW10G18   29.92S
MAYPORT NAS    CLOUDY    83  74  74 SW10      29.91F
JACKSONVILLE   CLOUDY    82  75  79 SW6       29.91S
FERNANDINA BEA PTSUNNY   84  77  79 SW7       29.90F
ST AUGUSTINE   CLOUDY    82  75  79 SW8       29.93S

STATION/POSITION SKY/WX   TEMP    WIND        PRES    WAVE   SWELL
                          AIR SEA DIR/SP/G            HT/PER HT/PER
                          (F)     (DEG/KT/KT) (MB)    (FT/S) (FT/S)
SHELL POINT                77      70/  4/ 11 1011.4
KEATON BEACH               76      90/  8/  9 1012.1R
CEDAR KEY                  78     190/ 14/ 16 1012.9R
FERNANDINA                 82 85  170/  3/  6 1013.0R
30.7N   81.3W                 84                N/A     4/11   2/11
MAYPORT                    80 84  220/  9/ 13 1013.4R
31.4N   80.9W              78 85  120/  8/ 10 1012.9R   4/ 6   3/ 6
ST AUGUSTINE               80 82  200/ 10/ 14 1013.7F

$$
FLZ040-043>046-052-053-057-058-063-144-311600-
INTERIOR CENTRAL FLORIDA

CITY           SKY/WX    TMP DP  RH WIND       PRES   REMARKS
OCALA          CLOUDY    79  72  78 S14       29.93S
THE VILLAGES     N/A     79  77  94 MISG      29.84F
LEESBURG       CLOUDY    78  74  87 S7        29.95S
SANFORD        HVY RAIN  77  74  90 SW13      29.96R FOG
ORLANDO EXEC   CLOUDY    77  75  93 SW5       29.95S
ORLANDO INTL   CLOUDY    80  75  84 S7        29.95S
KISSIMMEE      CLOUDY    80  76  87 S8        29.96R
WINTER HAVEN   CLOUDY    78  75  90 CALM      29.95S
LAKELAND       LGT RAIN  75  75 100 CALM      29.94F
BARTOW         PTSUNNY   77 N/A N/A S6        29.95R
OKEECHOBEE     DRIZZLE   81  77  89 S10G16    29.96R

$$
FLZ041-047-054-059-064-141-147-311600-
EAST CENTRAL FLORIDA

CITY           SKY/WX    TMP DP  RH WIND       PRES   REMARKS
ORMOND BEACH   LGT RAIN  79  77  94 SW12G17   29.94R
DAYTONA BEACH  LGT RAIN  79  76  90 SW8       29.94S FOG
DELAND         CLOUDY    79  77  94 SW9       29.95R
NEW SMYRNA BEA PTSUNNY   81  75  83 SW12G18   29.94
JFK SPACE CTR  CLOUDY   N/A N/A N/A S16         N/A
TITUSVILLE     PTSUNNY   81  79  94 S12       29.96R
CAPE CANAVERAL CLOUDY    82  76  81 S10       29.94R
PATRICK AFB    CLOUDY    81  77  87 S12       29.95R
MELBOURNE      CLOUDY    81  77  88 S12       29.95R
VERO BEACH     CLOUDY    82  76  81 S6        29.97R
FT PIERCE      CLOUDY    82  76  81 S7        29.96R
STUART         CLOUDY    84  77  79 SW7       29.97R

STATION/POSITION SKY/WX   TEMP    WIND        PRES    WAVE   SWELL
                          AIR SEA DIR/SP/G            HT/PER HT/PER
                          (F)     (DEG/KT/KT) (MB)    (FT/S) (FT/S)
28.5N   80.2W              81 82  200/ 16/ 19 1014.3R
TRIDENT PIER               81 85  170/  9/ 12 1014.3R
28.4N   80.5W                 84                N/A     4/ 5   2/11
27.5N   80.2W                 81                N/A     3/12   2/12

$$
FLZ050-056-061-142-242-148-248-149-249-151-251-155-255-
160-260-311600-
WEST CENTRAL FLORIDA

CITY           SKY/WX    TMP DP  RH WIND       PRES   REMARKS
CRYSTAL RIVER  RAIN      73  73 100 CALM      29.92F
INVERNESS      DRIZZLE   77  75  94 S5        29.94S
BROOKSVILLE    RAIN      75  75 100 CALM      29.95S FOG
CLEARWATER AIR RAIN      73  73 100 CALM      29.92F
ST PETE CLEARW RAIN      76  75  97 SE5       29.91F FOG
TAMPA INTL     LGT RAIN  77  76  96 SE5       29.93F
TAMPA EXEC     RAIN      77  75  94 CALM      29.94S
PLANT CITY     LGT RAIN  77  77 100 CALM      29.95F
MACDILL AFB    CLOUDY    76  76 100 E5        29.92F
PETER O KNIGHT LGT RAIN  79  79 100 SE6       29.93F
ST PETERSBURG  RAIN      78  76  93 SE8       29.90F FOG
SARASOTA       CLOUDY    80  76  87 SE10      29.90S
VENICE         FAIR      82  79  89 SE12      29.91S

STATION/POSITION SKY/WX   TEMP    WIND        PRES    WAVE   SWELL
                          AIR SEA DIR/SP/G            HT/PER HT/PER
                          (F)     (DEG/KT/KT) (MB)    (FT/S) (FT/S)
27.3N   84.2W                 86                N/A     7/ 8
CLEARWATER BEACH           75 85  250/ 16/ 18 1013.4R
MIDDLE TAMPA BAY                  130/  7/  8 1013.7R
VENICE                     82 83  130/ 10/ 13 1012.2S

$$
FLZ066-069-070-075>078-162-262-165-265-311600-
SOUTHWEST FLORIDA AND KEYS

CITY           SKY/WX    TMP DP  RH WIND       PRES   REMARKS
PUNTA GORDA    CLOUDY    82  77  84 S10       29.94R
FT MYERS       CLOUDY    82  78  88 S10       29.92S
SOUTHWEST INTL MOSUNNY   82  78  88 S8        29.93S
NAPLES         CLOUDY    82  79  90 S5        29.93R
MARATHON       CLOUDY    84  77  79 S12G18    29.95R
KEY WEST INTL  MOSUNNY   86  79  79 S16       29.94R HX  99

STATION/POSITION SKY/WX   TEMP    WIND        PRES    WAVE   SWELL
                          AIR SEA DIR/SP/G            HT/PER HT/PER
                          (F)     (DEG/KT/KT) (MB)    (FT/S) (FT/S)
NAPLES                        84              1013.1R
26.0N   85.6W              83 85  170/ 27/ 33 1008.7R   9/ 8   3/14
DRY TORTUGAS               84     170/ 22/ 25 1012.6F
SAND KEY                   83     180/ 20/ 24 1014.0R
LONG KEY                   83 82  160/ 17/ 19 1013.6R

$$
FLZ067-068-071>074-168-172>174-311600-
SOUTHEAST FLORIDA

CITY           SKY/WX    TMP DP  RH WIND       PRES   REMARKS
W PALM BEACH   CLOUDY    84  75  74 S9        29.97R
BOCA RATON     SUNNY     84  79  84 S10       29.96R HX  96
FT LAUDER-EXEC CLOUDY    84  75  74 S9        29.95S
FT LAUDERDALE  CLOUDY    83  76  79 S13       29.95R
POMPANO BEACH  CLOUDY    84  76  76 S12G18    29.96R
PEMBROKE PINES MOSUNNY   84  75  74 S14       29.97R
OPA LOCKA      CLOUDY    85  76  74 S14       29.96R
MIAMI          CLOUDY    85  78  80 SE13      29.96R HX  96
WEST KENDALL   CLOUDY    83  78  85 SE12G17   29.95R
HOMESTEAD      CLOUDY    85  77  77 SE15      29.95R HX  95

STATION/POSITION SKY/WX   TEMP    WIND        PRES    WAVE   SWELL
                          AIR SEA DIR/SP/G            HT/PER HT/PER
                          (F)     (DEG/KT/KT) (MB)    (FT/S) (FT/S)
PORT EVERGLADES            84     170/ 10/ 16 1014.2R
VIRGINIA KEY               83 86  180/ 11/ 14 1014.6R
LAKE WORTH                 83 84  180/ 11/ 14 1014.3R
FOWEY ROCKS                84 84  160/ 19/ 21 1014.6R
SETTLEMENT POINT           83     200/ 14/ 15 1016.0R

$$




USA.gov is the U.S. government's official web portal to all federal, state and local government web resources and services.